Year,Month,Day,Hour,Minute,Value (Times are PST for temperature in C)
2010,11,16,00,00,8.90
2010,11,16,00,01,8.80
2010,11,16,00,02,8.80
2010,11,16,00,03,8.80
2010,11,16,00,04,8.70
2010,11,16,00,05,8.70
2010,11,16,00,06,8.70
2010,11,16,00,07,8.70
2010,11,16,00,08,8.70
2010,11,16,00,09,8.70
2010,11,16,00,10,8.70
2010,11,16,00,11,8.60
2010,11,16,00,12,8.60
2010,11,16,00,13,8.60
2010,11,16,00,14,8.50
2010,11,16,00,15,8.50
2010,11,16,00,16,8.50
2010,11,16,00,17,8.40
2010,11,16,00,18,8.40
2010,11,16,00,19,8.30
2010,11,16,00,20,8.30
2010,11,16,00,21,8.30
2010,11,16,00,22,8.30
2010,11,16,00,23,8.20
2010,11,16,00,24,8.20
2010,11,16,00,25,8.20
2010,11,16,00,26,8.20
2010,11,16,00,27,8.20
2010,11,16,00,28,8.20
2010,11,16,00,29,8.20
2010,11,16,00,30,8.10
2010,11,16,00,31,8.10
2010,11,16,00,32,8.00
2010,11,16,00,33,8.00
2010,11,16,00,34,8.00
2010,11,16,00,35,8.00
2010,11,16,00,36,7.90
2010,11,16,00,37,7.90
2010,11,16,00,38,7.90
2010,11,16,00,39,7.90
2010,11,16,00,40,7.90
2010,11,16,00,41,7.90
2010,11,16,00,42,7.90
2010,11,16,00,43,7.90
2010,11,16,00,44,7.80
2010,11,16,00,45,7.80
2010,11,16,00,46,7.80
2010,11,16,00,47,7.80
2010,11,16,00,48,7.80
2010,11,16,00,49,7.80
2010,11,16,00,50,7.80
2010,11,16,00,51,7.80
2010,11,16,00,52,7.70
2010,11,16,00,53,7.70
2010,11,16,00,54,7.70
2010,11,16,00,55,7.70
2010,11,16,00,56,7.70
2010,11,16,00,57,7.60
2010,11,16,00,58,7.60
2010,11,16,00,59,7.60
2010,11,16,01,00,7.60
2010,11,16,01,01,7.60
2010,11,16,01,02,7.50
2010,11,16,01,03,7.50
2010,11,16,01,04,7.50
2010,11,16,01,05,7.40
2010,11,16,01,06,7.40
2010,11,16,01,07,7.40
2010,11,16,01,08,7.40
2010,11,16,01,09,7.30
2010,11,16,01,10,7.30
2010,11,16,01,11,7.30
2010,11,16,01,12,7.30
2010,11,16,01,13,7.30
2010,11,16,01,14,7.30
2010,11,16,01,15,7.20
2010,11,16,01,16,7.20
2010,11,16,01,17,7.20
2010,11,16,01,18,7.20
2010,11,16,01,19,7.10
2010,11,16,01,20,7.20
2010,11,16,01,21,7.20
2010,11,16,01,22,7.20
2010,11,16,01,23,7.20
2010,11,16,01,24,7.20
2010,11,16,01,25,7.10
2010,11,16,01,26,7.10
2010,11,16,01,27,7.10
2010,11,16,01,28,7.10
2010,11,16,01,29,7.10
2010,11,16,01,30,7.00
2010,11,16,01,31,7.00
2010,11,16,01,32,7.00
2010,11,16,01,33,7.00
2010,11,16,01,34,7.10
2010,11,16,01,35,7.10
2010,11,16,01,36,7.10
2010,11,16,01,37,7.10
2010,11,16,01,38,7.10
2010,11,16,01,39,7.10
2010,11,16,01,40,7.10
2010,11,16,01,41,7.10
2010,11,16,01,42,7.10
2010,11,16,01,43,7.10
2010,11,16,01,44,7.10
2010,11,16,01,45,7.10
2010,11,16,01,46,7.10
2010,11,16,01,47,7.20
2010,11,16,01,48,7.20
2010,11,16,01,49,7.20
2010,11,16,01,50,7.20
2010,11,16,01,51,7.20
2010,11,16,01,52,7.20
2010,11,16,01,53,7.20
2010,11,16,01,54,7.20
2010,11,16,01,55,7.20
2010,11,16,01,56,7.20
2010,11,16,01,57,7.20
2010,11,16,01,58,7.20
2010,11,16,01,59,7.30
2010,11,16,02,00,7.30
2010,11,16,02,01,7.30
2010,11,16,02,02,7.30
2010,11,16,02,03,7.30
2010,11,16,02,04,7.30
2010,11,16,02,05,7.30
2010,11,16,02,06,7.30
2010,11,16,02,07,7.30
2010,11,16,02,08,7.30
2010,11,16,02,09,7.30
2010,11,16,02,10,7.30
2010,11,16,02,11,7.30
2010,11,16,02,12,7.30
2010,11,16,02,13,7.30
2010,11,16,02,14,7.30
2010,11,16,02,15,7.30
2010,11,16,02,16,7.30
2010,11,16,02,17,7.30
2010,11,16,02,18,7.30
2010,11,16,02,19,7.30
2010,11,16,02,20,7.30
2010,11,16,02,21,7.40
2010,11,16,02,22,7.40
2010,11,16,02,23,7.40
2010,11,16,02,24,7.40
2010,11,16,02,25,7.40
2010,11,16,02,26,7.40
2010,11,16,02,27,7.40
2010,11,16,02,28,7.40
2010,11,16,02,29,7.40
2010,11,16,02,30,7.40
2010,11,16,02,31,7.50
2010,11,16,02,32,7.50
2010,11,16,02,33,7.60
2010,11,16,02,34,7.60
2010,11,16,02,35,7.60
2010,11,16,02,36,7.60
2010,11,16,02,37,7.70
2010,11,16,02,38,7.70
2010,11,16,02,39,7.80
2010,11,16,02,40,7.80
2010,11,16,02,41,7.80
2010,11,16,02,42,7.80
2010,11,16,02,43,7.90
2010,11,16,02,44,7.90
2010,11,16,02,45,8.00
2010,11,16,02,46,8.00
2010,11,16,02,47,8.10
2010,11,16,02,48,8.10
2010,11,16,02,49,8.20
2010,11,16,02,50,8.20
2010,11,16,02,51,8.40
2010,11,16,02,52,8.50
2010,11,16,02,53,8.60
2010,11,16,02,54,8.70
2010,11,16,02,55,8.70
2010,11,16,02,56,8.70
2010,11,16,02,57,8.70
2010,11,16,02,58,8.80
2010,11,16,02,59,8.80
2010,11,16,03,00,8.80
2010,11,16,03,01,8.90
2010,11,16,03,02,8.90
2010,11,16,03,03,8.90
2010,11,16,03,04,8.90
2010,11,16,03,05,8.90
2010,11,16,03,06,8.90
2010,11,16,03,07,8.90
2010,11,16,03,08,8.90
2010,11,16,03,09,8.90
2010,11,16,03,10,8.90
2010,11,16,03,11,9.00
2010,11,16,03,12,9.10
2010,11,16,03,13,9.10
2010,11,16,03,14,9.10
2010,11,16,03,15,9.10
2010,11,16,03,16,9.10
2010,11,16,03,17,9.10
2010,11,16,03,18,9.10
2010,11,16,03,19,9.10
2010,11,16,03,20,9.10
2010,11,16,03,21,9.10
2010,11,16,03,22,9.00
2010,11,16,03,23,9.00
2010,11,16,03,24,9.00
2010,11,16,03,25,8.90
2010,11,16,03,26,8.90
2010,11,16,03,27,8.90
2010,11,16,03,28,8.80
2010,11,16,03,29,8.80
2010,11,16,03,30,8.80
2010,11,16,03,31,8.70
2010,11,16,03,32,8.70
2010,11,16,03,33,8.70
2010,11,16,03,34,8.70
2010,11,16,03,35,8.70
2010,11,16,03,36,8.70
2010,11,16,03,37,8.70
2010,11,16,03,38,8.70
2010,11,16,03,39,8.70
2010,11,16,03,40,8.70
2010,11,16,03,41,8.60
2010,11,16,03,42,8.60
2010,11,16,03,43,8.60
2010,11,16,03,44,8.60
2010,11,16,03,45,8.60
2010,11,16,03,46,8.60
2010,11,16,03,47,8.50
2010,11,16,03,48,8.50
2010,11,16,03,49,8.50
2010,11,16,03,50,8.50
2010,11,16,03,51,8.50
2010,11,16,03,52,8.50
2010,11,16,03,53,8.50
2010,11,16,03,54,8.50
2010,11,16,03,55,8.40
2010,11,16,03,56,8.40
2010,11,16,03,57,8.40
2010,11,16,03,58,8.40
2010,11,16,03,59,8.40
2010,11,16,04,00,8.40
2010,11,16,04,01,8.40
2010,11,16,04,02,8.30
2010,11,16,04,03,8.30
2010,11,16,04,04,8.30
2010,11,16,04,05,8.30
2010,11,16,04,06,8.30
2010,11,16,04,07,8.20
2010,11,16,04,08,8.20
2010,11,16,04,09,8.20
2010,11,16,04,10,8.20
2010,11,16,04,11,8.20
2010,11,16,04,12,8.20
2010,11,16,04,13,8.20
2010,11,16,04,14,8.20
2010,11,16,04,15,8.20
2010,11,16,04,16,8.20
2010,11,16,04,17,8.20
2010,11,16,04,18,8.20
2010,11,16,04,19,8.20
2010,11,16,04,20,8.20
2010,11,16,04,21,8.20
2010,11,16,04,22,8.20
2010,11,16,04,23,8.20
2010,11,16,04,24,8.10
2010,11,16,04,25,8.10
2010,11,16,04,26,8.10
2010,11,16,04,27,8.10
2010,11,16,04,28,8.10
2010,11,16,04,29,8.10
2010,11,16,04,30,8.10
2010,11,16,04,31,8.00
2010,11,16,04,32,8.00
2010,11,16,04,33,8.00
2010,11,16,04,34,8.00
2010,11,16,04,35,8.00
2010,11,16,04,36,8.00
2010,11,16,04,37,8.00
2010,11,16,04,38,8.00
2010,11,16,04,39,8.00
2010,11,16,04,40,8.00
2010,11,16,04,41,8.00
2010,11,16,04,42,8.00
2010,11,16,04,43,7.90
2010,11,16,04,44,7.90
2010,11,16,04,45,7.90
2010,11,16,04,46,7.90
2010,11,16,04,47,7.90
2010,11,16,04,48,7.90
2010,11,16,04,49,7.90
2010,11,16,04,50,7.90
2010,11,16,04,51,7.80
2010,11,16,04,52,7.80
2010,11,16,04,53,7.80
2010,11,16,04,54,7.80
2010,11,16,04,55,7.80
2010,11,16,04,56,7.80
2010,11,16,04,57,7.80
2010,11,16,04,58,7.80
2010,11,16,04,59,7.80
2010,11,16,05,00,7.80
2010,11,16,05,01,7.70
2010,11,16,05,02,7.70
2010,11,16,05,03,7.70
2010,11,16,05,04,7.70
2010,11,16,05,05,7.70
2010,11,16,05,06,7.60
2010,11,16,05,07,7.60
2010,11,16,05,08,7.60
2010,11,16,05,09,7.60
2010,11,16,05,10,7.60
2010,11,16,05,11,7.60
2010,11,16,05,12,7.50
2010,11,16,05,13,7.50
2010,11,16,05,14,7.50
2010,11,16,05,15,7.50
2010,11,16,05,16,7.50
2010,11,16,05,17,7.40
2010,11,16,05,18,7.40
2010,11,16,05,19,7.40
2010,11,16,05,20,7.40
2010,11,16,05,21,7.40
2010,11,16,05,22,7.40
2010,11,16,05,23,7.40
2010,11,16,05,24,7.40
2010,11,16,05,25,7.40
2010,11,16,05,26,7.40
2010,11,16,05,27,7.30
2010,11,16,05,28,7.30
2010,11,16,05,29,7.30
2010,11,16,05,30,7.30
2010,11,16,05,31,7.30
2010,11,16,05,32,7.30
2010,11,16,05,33,7.30
2010,11,16,05,34,7.30
2010,11,16,05,35,7.30
2010,11,16,05,36,7.30
2010,11,16,05,37,7.30
2010,11,16,05,38,7.30
2010,11,16,05,39,7.30
2010,11,16,05,40,7.30
2010,11,16,05,41,7.30
2010,11,16,05,42,7.30
2010,11,16,05,43,7.30
2010,11,16,05,44,7.30
2010,11,16,05,45,7.30
2010,11,16,05,46,7.30
2010,11,16,05,47,7.30
2010,11,16,05,48,7.30
2010,11,16,05,49,7.30
2010,11,16,05,50,7.30
2010,11,16,05,51,7.30
2010,11,16,05,52,7.30
2010,11,16,05,53,7.30
2010,11,16,05,54,7.30
2010,11,16,05,55,7.30
2010,11,16,05,56,7.30
2010,11,16,05,57,7.30
2010,11,16,05,58,7.30
2010,11,16,05,59,7.30
2010,11,16,06,00,7.30
2010,11,16,06,01,7.30
2010,11,16,06,02,7.30
2010,11,16,06,03,7.30
2010,11,16,06,04,7.30
2010,11,16,06,05,7.30
2010,11,16,06,06,7.30
2010,11,16,06,07,7.30
2010,11,16,06,08,7.20
2010,11,16,06,09,7.20
2010,11,16,06,10,7.20
2010,11,16,06,11,7.20
2010,11,16,06,12,7.20
2010,11,16,06,13,7.20
2010,11,16,06,14,7.20
2010,11,16,06,15,7.10
2010,11,16,06,16,7.10
2010,11,16,06,17,7.10
2010,11,16,06,18,7.10
2010,11,16,06,19,7.10
2010,11,16,06,20,7.10
2010,11,16,06,21,7.00
2010,11,16,06,22,7.00
2010,11,16,06,23,7.00
2010,11,16,06,24,7.00
2010,11,16,06,25,7.00
2010,11,16,06,26,7.00
2010,11,16,06,27,7.00
2010,11,16,06,28,7.00
2010,11,16,06,29,6.90
2010,11,16,06,30,6.90
2010,11,16,06,31,6.90
2010,11,16,06,32,6.90
2010,11,16,06,33,6.90
2010,11,16,06,34,6.90
2010,11,16,06,35,6.90
2010,11,16,06,36,6.90
2010,11,16,06,37,6.90
2010,11,16,06,38,6.90
2010,11,16,06,39,6.80
2010,11,16,06,40,6.80
2010,11,16,06,41,6.80
2010,11,16,06,42,6.80
2010,11,16,06,43,6.80
2010,11,16,06,44,6.80
2010,11,16,06,45,6.80
2010,11,16,06,46,6.80
2010,11,16,06,47,6.80
2010,11,16,06,48,6.80
2010,11,16,06,49,6.80
2010,11,16,06,50,6.80
2010,11,16,06,51,6.80
2010,11,16,06,52,6.80
2010,11,16,06,53,6.80
2010,11,16,06,54,6.80
2010,11,16,06,55,6.80
2010,11,16,06,56,6.80
2010,11,16,06,57,6.80
2010,11,16,06,58,6.80
2010,11,16,06,59,6.80
2010,11,16,07,00,6.80
2010,11,16,07,01,6.80
2010,11,16,07,02,6.80
2010,11,16,07,03,6.80
2010,11,16,07,04,6.80
2010,11,16,07,05,6.80
2010,11,16,07,06,6.80
2010,11,16,07,07,6.80
2010,11,16,07,08,6.90
2010,11,16,07,09,6.90
2010,11,16,07,10,6.90
2010,11,16,07,11,6.90
2010,11,16,07,12,6.90
2010,11,16,07,13,6.90
2010,11,16,07,14,6.90
2010,11,16,07,15,7.00
2010,11,16,07,16,7.00
2010,11,16,07,17,7.00
2010,11,16,07,18,7.00
2010,11,16,07,19,7.00
2010,11,16,07,20,7.00
2010,11,16,07,21,7.00
2010,11,16,07,22,7.10
2010,11,16,07,23,7.10
2010,11,16,07,24,7.10
2010,11,16,07,25,7.10
2010,11,16,07,26,7.10
2010,11,16,07,27,7.10
2010,11,16,07,28,7.10
2010,11,16,07,29,7.20
2010,11,16,07,30,7.20
2010,11,16,07,31,7.20
2010,11,16,07,32,7.20
2010,11,16,07,33,7.20
2010,11,16,07,34,7.20
2010,11,16,07,35,7.20
2010,11,16,07,36,7.20
2010,11,16,07,37,7.20
2010,11,16,07,38,7.20
2010,11,16,07,39,7.20
2010,11,16,07,40,7.20
2010,11,16,07,41,7.20
2010,11,16,07,42,7.20
2010,11,16,07,43,7.30
2010,11,16,07,44,7.30
2010,11,16,07,45,7.30
2010,11,16,07,46,7.30
2010,11,16,07,47,7.30
2010,11,16,07,48,7.30
2010,11,16,07,49,7.30
2010,11,16,07,50,7.30
2010,11,16,07,51,7.30
2010,11,16,07,52,7.30
2010,11,16,07,53,7.30
2010,11,16,07,54,7.30
2010,11,16,07,55,7.30
2010,11,16,07,56,7.30
2010,11,16,07,57,7.30
2010,11,16,07,58,7.30
2010,11,16,07,59,7.30
2010,11,16,08,00,7.30
2010,11,16,08,01,7.40
2010,11,16,08,02,7.40
2010,11,16,08,03,7.40
2010,11,16,08,04,7.40
2010,11,16,08,05,7.40
2010,11,16,08,06,7.40
2010,11,16,08,07,7.40
2010,11,16,08,08,7.40
2010,11,16,08,09,7.40
2010,11,16,08,10,7.40
2010,11,16,08,11,7.40
2010,11,16,08,12,7.40
2010,11,16,08,13,7.40
2010,11,16,08,14,7.40
2010,11,16,08,15,7.50
2010,11,16,08,16,7.50
2010,11,16,08,17,7.50
2010,11,16,08,18,7.50
2010,11,16,08,19,7.50
2010,11,16,08,20,7.50
2010,11,16,08,21,7.50
2010,11,16,08,22,7.50
2010,11,16,08,23,7.50
2010,11,16,08,24,7.50
2010,11,16,08,25,7.50
2010,11,16,08,26,7.50
2010,11,16,08,27,7.60
2010,11,16,08,28,7.60
2010,11,16,08,29,7.70
2010,11,16,08,30,7.70
2010,11,16,08,31,7.80
2010,11,16,08,32,7.80
2010,11,16,08,33,7.80
2010,11,16,08,34,7.80
2010,11,16,08,35,7.80
2010,11,16,08,36,7.80
2010,11,16,08,37,7.80
2010,11,16,08,38,7.80
2010,11,16,08,39,7.90
2010,11,16,08,40,7.90
2010,11,16,08,41,7.90
2010,11,16,08,42,7.90
2010,11,16,08,43,8.00
2010,11,16,08,44,8.00
2010,11,16,08,45,8.10
2010,11,16,08,46,8.10
2010,11,16,08,47,8.10
2010,11,16,08,48,8.20
2010,11,16,08,49,8.20
2010,11,16,08,50,8.20
2010,11,16,08,51,8.20
2010,11,16,08,52,8.20
2010,11,16,08,53,8.30
2010,11,16,08,54,8.30
2010,11,16,08,55,8.30
2010,11,16,08,56,8.40
2010,11,16,08,57,8.40
2010,11,16,08,58,8.50
2010,11,16,08,59,8.50
2010,11,16,09,00,8.50
2010,11,16,09,01,8.50
2010,11,16,09,02,8.50
2010,11,16,09,03,8.50
2010,11,16,09,04,8.50
2010,11,16,09,05,8.60
2010,11,16,09,06,8.60
2010,11,16,09,07,8.60
2010,11,16,09,08,8.60
2010,11,16,09,09,8.70
2010,11,16,09,10,8.70
2010,11,16,09,11,8.70
2010,11,16,09,12,8.70
2010,11,16,09,13,8.70
2010,11,16,09,14,8.70
2010,11,16,09,15,8.70
2010,11,16,09,16,8.70
2010,11,16,09,17,8.70
2010,11,16,09,18,8.70
2010,11,16,09,19,8.70
2010,11,16,09,20,8.70
2010,11,16,09,21,8.70
2010,11,16,09,22,8.70
2010,11,16,09,23,8.70
2010,11,16,09,24,8.80
2010,11,16,09,25,8.80
2010,11,16,09,26,8.80
2010,11,16,09,27,8.80
2010,11,16,09,28,8.80
2010,11,16,09,29,8.80
2010,11,16,09,30,8.80
2010,11,16,09,31,8.80
2010,11,16,09,32,8.90
2010,11,16,09,33,8.90
2010,11,16,09,34,8.90
2010,11,16,09,35,8.90
2010,11,16,09,36,8.90
2010,11,16,09,37,8.90
2010,11,16,09,38,8.90
2010,11,16,09,39,9.00
2010,11,16,09,40,9.00
2010,11,16,09,41,9.00
2010,11,16,09,42,9.00
2010,11,16,09,43,9.00
2010,11,16,09,44,9.10
2010,11,16,09,45,9.10
2010,11,16,09,46,9.20
2010,11,16,09,47,9.20
2010,11,16,09,48,9.20
2010,11,16,09,49,9.20
2010,11,16,09,50,9.20
2010,11,16,09,51,9.20
2010,11,16,09,52,9.20
2010,11,16,09,53,9.20
2010,11,16,09,54,9.20
2010,11,16,09,55,9.20
2010,11,16,09,56,9.20
2010,11,16,09,57,9.20
2010,11,16,09,58,9.30
2010,11,16,09,59,9.30
2010,11,16,10,00,9.30
2010,11,16,10,01,9.30
2010,11,16,10,02,9.30
2010,11,16,10,03,9.30
2010,11,16,10,04,9.40
2010,11,16,10,05,9.50
2010,11,16,10,06,9.50
2010,11,16,10,07,9.60
2010,11,16,10,08,9.60
2010,11,16,10,09,9.70
2010,11,16,10,10,9.80
2010,11,16,10,11,9.90
2010,11,16,10,12,9.90
2010,11,16,10,13,10.00
2010,11,16,10,14,10.10
2010,11,16,10,15,10.20
2010,11,16,10,16,10.30
2010,11,16,10,17,10.40
2010,11,16,10,18,10.50
2010,11,16,10,19,10.60
2010,11,16,10,20,10.70
2010,11,16,10,21,10.80
2010,11,16,10,22,10.80
2010,11,16,10,23,10.90
2010,11,16,10,24,10.90
2010,11,16,10,25,10.90
2010,11,16,10,26,11.10
2010,11,16,10,27,11.10
2010,11,16,10,28,11.10
2010,11,16,10,29,11.20
2010,11,16,10,30,11.30
2010,11,16,10,31,11.30
2010,11,16,10,32,11.30
2010,11,16,10,33,11.30
2010,11,16,10,34,11.30
2010,11,16,10,35,11.30
2010,11,16,10,36,11.40
2010,11,16,10,37,11.40
2010,11,16,10,38,11.40
2010,11,16,10,39,11.40
2010,11,16,10,40,11.40
2010,11,16,10,41,11.40
2010,11,16,10,42,11.40
2010,11,16,10,43,11.40
2010,11,16,10,44,11.40
2010,11,16,10,45,11.40
2010,11,16,10,46,11.40
2010,11,16,10,47,11.50
2010,11,16,10,48,11.60
2010,11,16,10,49,11.60
2010,11,16,10,50,11.60
2010,11,16,10,51,11.60
2010,11,16,10,52,11.60
2010,11,16,10,53,11.50
2010,11,16,10,54,11.60
2010,11,16,10,55,11.60
2010,11,16,10,56,11.50
2010,11,16,10,57,11.40
2010,11,16,10,58,11.40
2010,11,16,10,59,11.30
2010,11,16,11,00,11.30
2010,11,16,11,01,11.20
2010,11,16,11,02,11.10
2010,11,16,11,03,11.10
2010,11,16,11,04,11.00
2010,11,16,11,05,10.90
2010,11,16,11,06,10.90
2010,11,16,11,07,10.80
2010,11,16,11,08,10.80
2010,11,16,11,09,10.70
2010,11,16,11,10,10.70
2010,11,16,11,11,10.70
2010,11,16,11,12,10.60
2010,11,16,11,13,10.70
2010,11,16,11,14,10.70
2010,11,16,11,15,10.60
2010,11,16,11,16,10.70
2010,11,16,11,17,10.70
2010,11,16,11,18,10.70
2010,11,16,11,19,10.70
2010,11,16,11,20,10.70
2010,11,16,11,21,10.70
2010,11,16,11,22,10.70
2010,11,16,11,23,10.70
2010,11,16,11,24,10.80
2010,11,16,11,25,10.80
2010,11,16,11,26,10.80
2010,11,16,11,27,10.80
2010,11,16,11,28,10.80
2010,11,16,11,29,10.80
2010,11,16,11,30,10.80
2010,11,16,11,31,10.80
2010,11,16,11,32,10.80
2010,11,16,11,33,10.80
2010,11,16,11,34,10.80
2010,11,16,11,35,10.90
2010,11,16,11,36,10.90
2010,11,16,11,37,10.90
2010,11,16,11,38,10.90
2010,11,16,11,39,10.90
2010,11,16,11,40,10.90
2010,11,16,11,41,10.90
2010,11,16,11,42,10.90
2010,11,16,11,43,10.90
2010,11,16,11,44,10.80
2010,11,16,11,45,10.80
2010,11,16,11,46,10.80
2010,11,16,11,47,10.80
2010,11,16,11,48,10.80
2010,11,16,11,49,10.70
2010,11,16,11,50,10.70
2010,11,16,11,51,10.70
2010,11,16,11,52,10.70
2010,11,16,11,53,10.70
2010,11,16,11,54,10.70
2010,11,16,11,55,10.80
2010,11,16,11,56,10.80
2010,11,16,11,57,10.90
2010,11,16,11,58,10.90
2010,11,16,11,59,10.90
2010,11,16,12,00,10.90
2010,11,16,12,01,10.90
2010,11,16,12,02,10.80
2010,11,16,12,03,10.80
2010,11,16,12,04,10.90
2010,11,16,12,05,10.90
2010,11,16,12,06,10.80
2010,11,16,12,07,10.80
2010,11,16,12,08,10.80
2010,11,16,12,09,10.90
2010,11,16,12,10,10.90
2010,11,16,12,11,10.90
2010,11,16,12,12,11.00
2010,11,16,12,13,11.10
2010,11,16,12,14,11.10
2010,11,16,12,15,11.20
2010,11,16,12,16,11.30
2010,11,16,12,17,11.30
2010,11,16,12,18,11.30
2010,11,16,12,19,11.30
2010,11,16,12,20,11.30
2010,11,16,12,21,11.20
2010,11,16,12,22,11.20
2010,11,16,12,23,11.10
2010,11,16,12,24,11.10
2010,11,16,12,25,11.10
2010,11,16,12,26,11.10
2010,11,16,12,27,11.10
2010,11,16,12,28,11.10
2010,11,16,12,29,10.90
2010,11,16,12,30,10.90
2010,11,16,12,31,11.00
2010,11,16,12,32,11.10
2010,11,16,12,33,11.10
2010,11,16,12,34,11.20
2010,11,16,12,35,11.30
2010,11,16,12,36,11.40
2010,11,16,12,37,11.40
2010,11,16,12,38,11.50
2010,11,16,12,39,11.60
2010,11,16,12,40,11.60
2010,11,16,12,41,11.60
2010,11,16,12,42,11.70
2010,11,16,12,43,11.70
2010,11,16,12,44,11.70
2010,11,16,12,45,11.80
2010,11,16,12,46,11.90
2010,11,16,12,47,11.90
2010,11,16,12,48,12.00
2010,11,16,12,49,12.00
2010,11,16,12,50,12.00
2010,11,16,12,51,12.10
2010,11,16,12,52,12.10
2010,11,16,12,53,12.20
2010,11,16,12,54,12.20
2010,11,16,12,55,12.20
2010,11,16,12,56,12.10
2010,11,16,12,57,12.10
2010,11,16,12,58,12.00
2010,11,16,12,59,11.90
2010,11,16,13,00,11.90
2010,11,16,13,01,11.90
2010,11,16,13,02,11.80
2010,11,16,13,03,11.80
2010,11,16,13,04,11.80
2010,11,16,13,05,11.80
2010,11,16,13,06,11.90
2010,11,16,13,07,11.90
2010,11,16,13,08,11.90
2010,11,16,13,09,11.80
2010,11,16,13,10,11.80
2010,11,16,13,11,11.90
2010,11,16,13,12,12.00
2010,11,16,13,13,12.10
2010,11,16,13,14,12.10
2010,11,16,13,15,12.20
2010,11,16,13,16,12.30
2010,11,16,13,17,12.30
2010,11,16,13,18,12.40
2010,11,16,13,19,12.40
2010,11,16,13,20,12.30
2010,11,16,13,21,12.30
2010,11,16,13,22,12.30
2010,11,16,13,23,12.20
2010,11,16,13,24,12.10
2010,11,16,13,25,12.10
2010,11,16,13,26,12.00
2010,11,16,13,27,12.00
2010,11,16,13,28,12.00
2010,11,16,13,29,12.00
2010,11,16,13,30,12.00
2010,11,16,13,31,11.90
2010,11,16,13,32,11.90
2010,11,16,13,33,11.90
2010,11,16,13,34,11.90
2010,11,16,13,35,11.90
2010,11,16,13,36,11.90
2010,11,16,13,37,11.80
2010,11,16,13,38,11.80
2010,11,16,13,39,11.80
2010,11,16,13,40,11.80
2010,11,16,13,41,11.80
2010,11,16,13,42,11.90
2010,11,16,13,43,11.90
2010,11,16,13,44,11.90
2010,11,16,13,45,11.90
2010,11,16,13,46,11.90
2010,11,16,13,47,11.80
2010,11,16,13,48,11.80
2010,11,16,13,49,11.80
2010,11,16,13,50,11.70
2010,11,16,13,51,11.70
2010,11,16,13,52,11.60
2010,11,16,13,53,11.60
2010,11,16,13,54,11.50
2010,11,16,13,55,11.40
2010,11,16,13,56,11.40
2010,11,16,13,57,11.40
2010,11,16,13,58,11.40
2010,11,16,13,59,11.30
2010,11,16,14,00,11.30
2010,11,16,14,01,11.20
2010,11,16,14,02,11.20
2010,11,16,14,03,11.10
2010,11,16,14,04,11.10
2010,11,16,14,05,11.10
2010,11,16,14,06,11.10
2010,11,16,14,07,11.00
2010,11,16,14,08,10.90
2010,11,16,14,09,10.90
2010,11,16,14,10,10.90
2010,11,16,14,11,10.90
2010,11,16,14,12,10.90
2010,11,16,14,13,10.80
2010,11,16,14,14,10.80
2010,11,16,14,15,10.90
2010,11,16,14,16,10.80
2010,11,16,14,17,10.80
2010,11,16,14,18,10.80
2010,11,16,14,19,10.80
2010,11,16,14,20,10.80
2010,11,16,14,21,10.80
2010,11,16,14,22,10.80
2010,11,16,14,23,10.80
2010,11,16,14,24,10.80
2010,11,16,14,25,10.80
2010,11,16,14,26,10.80
2010,11,16,14,27,10.80
2010,11,16,14,28,10.80
2010,11,16,14,29,10.70
2010,11,16,14,30,10.70
2010,11,16,14,31,10.70
2010,11,16,14,32,10.70
2010,11,16,14,33,10.60
2010,11,16,14,34,10.60
2010,11,16,14,35,10.60
2010,11,16,14,36,10.60
2010,11,16,14,37,10.60
2010,11,16,14,38,10.60
2010,11,16,14,39,10.60
2010,11,16,14,40,10.60
2010,11,16,14,41,10.60
2010,11,16,14,42,10.60
2010,11,16,14,43,10.60
2010,11,16,14,44,10.60
2010,11,16,14,45,10.60
2010,11,16,14,46,10.60
2010,11,16,14,47,10.60
2010,11,16,14,48,10.60
2010,11,16,14,49,10.50
2010,11,16,14,50,10.40
2010,11,16,14,51,10.40
2010,11,16,14,52,10.40
2010,11,16,14,53,10.40
2010,11,16,14,54,10.40
2010,11,16,14,55,10.40
2010,11,16,14,56,10.40
2010,11,16,14,57,10.40
2010,11,16,14,58,10.40
2010,11,16,14,59,10.40
2010,11,16,15,00,10.40
2010,11,16,15,01,10.40
2010,11,16,15,02,10.40
2010,11,16,15,03,10.40
2010,11,16,15,04,10.40
2010,11,16,15,05,10.40
2010,11,16,15,06,10.40
2010,11,16,15,07,10.40
2010,11,16,15,08,10.40
2010,11,16,15,09,10.40
2010,11,16,15,10,10.40
2010,11,16,15,11,10.40
2010,11,16,15,12,10.40
2010,11,16,15,13,10.40
2010,11,16,15,14,10.40
2010,11,16,15,15,10.40
2010,11,16,15,16,10.40
2010,11,16,15,17,10.40
2010,11,16,15,18,10.40
2010,11,16,15,19,10.40
2010,11,16,15,20,10.30
2010,11,16,15,21,10.30
2010,11,16,15,22,10.30
2010,11,16,15,23,10.30
2010,11,16,15,24,10.30
2010,11,16,15,25,10.30
2010,11,16,15,26,10.30
2010,11,16,15,27,10.30
2010,11,16,15,28,10.30
2010,11,16,15,29,10.30
2010,11,16,15,30,10.30
2010,11,16,15,31,10.30
2010,11,16,15,32,10.30
2010,11,16,15,33,10.30
2010,11,16,15,34,10.30
2010,11,16,15,35,10.30
2010,11,16,15,36,10.30
2010,11,16,15,37,10.30
2010,11,16,15,38,10.30
2010,11,16,15,39,10.30
2010,11,16,15,40,10.30
2010,11,16,15,41,10.30
2010,11,16,15,42,10.30
2010,11,16,15,43,10.30
2010,11,16,15,44,10.30
2010,11,16,15,45,10.20
2010,11,16,15,46,10.20
2010,11,16,15,47,10.20
2010,11,16,15,48,10.10
2010,11,16,15,49,10.10
2010,11,16,15,50,10.10
2010,11,16,15,51,10.10
2010,11,16,15,52,10.10
2010,11,16,15,53,10.10
2010,11,16,15,54,10.10
2010,11,16,15,55,10.10
2010,11,16,15,56,10.10
2010,11,16,15,57,10.10
2010,11,16,15,58,10.00
2010,11,16,15,59,9.90
2010,11,16,16,00,9.90
2010,11,16,16,01,9.90
2010,11,16,16,02,9.90
2010,11,16,16,03,9.90
2010,11,16,16,04,9.90
2010,11,16,16,05,9.90
2010,11,16,16,06,9.80
2010,11,16,16,07,9.80
2010,11,16,16,08,9.70
2010,11,16,16,09,9.70
2010,11,16,16,10,9.60
2010,11,16,16,11,9.60
2010,11,16,16,12,9.50
2010,11,16,16,13,9.50
2010,11,16,16,14,9.50
2010,11,16,16,15,9.40
2010,11,16,16,16,9.40
2010,11,16,16,17,9.40
2010,11,16,16,18,9.40
2010,11,16,16,19,9.30
2010,11,16,16,20,9.30
2010,11,16,16,21,9.30
2010,11,16,16,22,9.20
2010,11,16,16,23,9.20
2010,11,16,16,24,9.20
2010,11,16,16,25,9.20
2010,11,16,16,26,9.20
2010,11,16,16,27,9.20
2010,11,16,16,28,9.10
2010,11,16,16,29,9.10
2010,11,16,16,30,9.10
2010,11,16,16,31,9.10
2010,11,16,16,32,9.00
2010,11,16,16,33,9.00
2010,11,16,16,34,9.00
2010,11,16,16,35,8.90
2010,11,16,16,36,8.90
2010,11,16,16,37,8.90
2010,11,16,16,38,8.80
2010,11,16,16,39,8.80
2010,11,16,16,40,8.70
2010,11,16,16,41,8.70
2010,11,16,16,42,8.70
2010,11,16,16,43,8.70
2010,11,16,16,44,8.70
2010,11,16,16,45,8.70
2010,11,16,16,46,8.70
2010,11,16,16,47,8.60
2010,11,16,16,48,8.60
2010,11,16,16,49,8.60
2010,11,16,16,50,8.50
2010,11,16,16,51,8.50
2010,11,16,16,52,8.50
2010,11,16,16,53,8.50
2010,11,16,16,54,8.40
2010,11,16,16,55,8.40
2010,11,16,16,56,8.40
2010,11,16,16,57,8.30
2010,11,16,16,58,8.30
2010,11,16,16,59,8.30
2010,11,16,17,00,8.30
2010,11,16,17,01,8.20
2010,11,16,17,02,8.20
2010,11,16,17,03,8.20
2010,11,16,17,04,8.20
2010,11,16,17,05,8.20
2010,11,16,17,06,8.20
2010,11,16,17,07,8.20
2010,11,16,17,08,8.20
2010,11,16,17,09,8.10
2010,11,16,17,10,8.10
2010,11,16,17,11,8.10
2010,11,16,17,12,8.10
2010,11,16,17,13,8.00
2010,11,16,17,14,8.00
2010,11,16,17,15,8.00
2010,11,16,17,16,8.00
2010,11,16,17,17,7.90
2010,11,16,17,18,7.90
2010,11,16,17,19,7.90
2010,11,16,17,20,7.80
2010,11,16,17,21,7.80
2010,11,16,17,22,7.80
2010,11,16,17,23,7.80
2010,11,16,17,24,7.80
2010,11,16,17,25,7.80
2010,11,16,17,26,7.70
2010,11,16,17,27,7.70
2010,11,16,17,28,7.70
2010,11,16,17,29,7.60
2010,11,16,17,30,7.60
2010,11,16,17,31,7.60
2010,11,16,17,32,7.60
2010,11,16,17,33,7.60
2010,11,16,17,34,7.50
2010,11,16,17,35,7.50
2010,11,16,17,36,7.50
2010,11,16,17,37,7.50
2010,11,16,17,38,7.40
2010,11,16,17,39,7.40
2010,11,16,17,40,7.40
2010,11,16,17,41,7.30
2010,11,16,17,42,7.30
2010,11,16,17,43,7.30
2010,11,16,17,44,7.30
2010,11,16,17,45,7.30
2010,11,16,17,46,7.30
2010,11,16,17,47,7.30
2010,11,16,17,48,7.30
2010,11,16,17,49,7.30
2010,11,16,17,50,7.20
2010,11,16,17,51,7.20